Find Starlink 11088

NORAD ID: 59709 Int'l Des: 2024-088 Owner: SPXS Country: US Constellation: starlink operational
LEOCIRCULAR

現在のビュー

3D地球を読み込み中...

About Starlink 11088

Starlink 11088 (NORAD 59709) is a starlink constellation satellite (v2 mini d2c) launched May 10, 2024 by SPXS of US. It operates in LEO, CIRCULAR orbit with a mass of 960.00 kg.

Starlink 11088について

説明を読み込み中...

次回通過

Passes for default location (London). Set your location on the main map for personalized predictions.

高度履歴

Loading altitude history...

軌道要素

1 59709U 24088B 26170.21410227 .00039572 00000-0 32979-3 0 9996
2 59709 53.1578 186.0992 0000878 97.9766 262.1351 15.69719892122218
Epoch: Jun 19, 2026 • Age: 13 hours

現在のステータス

高度 360.4 km
速度 7.69 km/s
衛星直下点 -0.07°S, 176.39°W
打ち上げ日 May 10, 2024
運用期間 2.1 years
タイプ internet

技術仕様

分類 Payload
質量 960.00 kg
乾燥質量 910.00 kg
総質量 960.00 kg
長さ 0.30 m
直径 4.10 m
スパン 29.00 m
形状 Box + pan
製造者 SPXS
バスタイプ Starlink V2MD
フェーズステータス In Orbit
所有者/国 SPXS/US

Most Searched